This demonstration page uses our WeatherBlox Daily Observations layout. Learn more.

Left ArrowRight Arrow

38.89511, -77.03637

Hourly Observations for May 2, 2018

Temp ( °F °C ) Dew Point ( °F °C ) Humidity (%) Winds ( mph kmh ) Pressure ( in mb ) Visibility ( mi km ) Precip ( " mm )
12:52 am 00:52 Clear 63 17.2 44 6.7 50 50 S 8 13 30.14 1021 10 16 0.00 0.00
1:52 am 01:52 Clear 62 16.7 39 3.9 43 43 SW 5 7 30.13 1020 10 16 0.00 0.00
2:52 am 02:52 Clear 62 16.7 45 7.2 54 54 S 5 7 30.12 1020 10 16 0.00 0.00
3:52 am 03:52 Clear 60 15.6 45 7.2 58 58 S 5 7 30.13 1020 10 16 0.00 0.00
4:52 am 04:52 Clear 57 13.9 47 8.3 69 69 SSW 5 7 30.14 1021 10 16 0.00 0.00
5:52 am 05:52 Mostly Clear 56 13.3 45 7.2 67 67 S 5 7 30.14 1021 10 16 0.00 0.00
6:52 am 06:52 Mostly Sunny 57 13.9 45 7.2 64 64 SW 3 6 30.16 1022 10 16 0.00 0.00
7:52 am 07:52 Mostly Sunny 61 16.1 50 10 67 67 SSE 3 6 30.18 1022 10 16 0.00 0.00
8:52 am 08:52 Mostly Sunny 65 18.3 48 8.9 54 54 S 5 7 30.19 1022 10 16 0.00 0.00
9:52 am 09:52 Mostly Sunny 69 20.6 44 6.7 41 41 S 5 7 30.18 1022 10 16 0.00 0.00
10:52 am 10:52 Mostly Sunny 74 23.3 50 10 43 43 SSE 5 7 30.18 1022 10 16 0.00 0.00
11:52 am 11:52 Mostly Sunny 82 27.8 50 10 33 33 S 7 11 30.16 1021 10 16 0.00 0.00
12:52 pm 12:52 Mostly Sunny 84 28.9 50 10 31 31 SSE 12 19 30.15 1021 10 16 0.00 0.00
1:52 pm 13:52 Partly Cloudy 86 30 47 8.3 26 26 SSE 13 20 30.12 1020 10 16 0.00 0.00
2:52 pm 14:52 Partly Cloudy 87 30.6 45 7.2 23 23 S 10 17 30.10 1019 10 16 0.00 0.00
3:52 pm 15:52 Partly Cloudy 86 30 45 7.2 24 24 S 12 19 30.06 1018 10 16 0.00 0.00
4:52 pm 16:52 Mostly Cloudy 90 32.2 35 1.7 14 14 WSW 13 20 30.06 1018 10 16 0.00 0.00
5:52 pm 17:52 Mostly Cloudy 90 32.2 37 2.8 15 15 W 16 26 30.05 1018 10 16 0.00 0.00
6:52 pm 18:52 Mostly Cloudy 87 30.6 41 5 20 20 SSW 9 15 30.04 1017 10 16 0.00 0.00
7:52 pm 19:52 Mostly Cloudy 78 25.6 49 9.4 36 36 S 8 13 30.04 1017 10 16 0.00 0.00
8:52 pm 20:52 Mostly Cloudy 75 23.9 51 10.6 43 43 SSW 8 13 30.05 1018 10 16 0.00 0.00
9:52 pm 21:52 Mostly Cloudy 74 23.3 51 10.6 45 45 S 9 15 30.06 1018 10 16 0.00 0.00
10:52 pm 22:52 Mostly Cloudy 74 23.3 49 9.4 41 41 SSW 8 13 30.06 1018 10 16 0.00 0.00
11:52 pm 23:52 Mostly Cloudy 71 21.7 52 11.1 51 51 S 10 17 30.06 1018 10 16 0.00 0.00

Powered by AerisWeather